Showing default

METEOSAT 5 (MOP 2), 21140

Orbit data source: Space-Track

METEOSAT 5 (MOP 2), 21140 is a payload satellite owned by EUMETSAT (ESA) in GEO that was launched on Sat, 02 Mar 1991 UTC via an ARIANE 44LP launch vehicle from the French Guiana (FRGUI). Payload-class satellites include a variety of spacecraft equipped with specific instruments for various scientific and technological missions. These include communications satellites like Starlink; space stations such as the ISS; scientific satellites like the Hubble; Earth observation satellites from companies like Planet Labs, Umbra, and HawkEye 360; GPS; miniature CubeSats for education and research; and military/defense satellites.

Loading next visibility...
Identifier
21140, 1991-015B
Orbit
GEO
Country
Flag of ESAESA
Related business
Manufacturer
Ae/Cannes
Mission
Non-operational Civil Weather
Bus & Motor
METEOSAT, AOCS
Mass
343 kg wet, 284 kg dry
Launch date (UTC)
1991-03-02 (35 years ago)
Launch vehicle
ARIANE 44LP
Launch site
French Guiana (FRGUI)
Object type
Payload
Rocket body
Debris
Shape & HBR
Cyl + Cyl + 1 Ant, 1.7 m
Radar Cross Section
4.680 m², Large (>1 m²)

Expand to show TLE details & history
Last TLE update: 2 days ago

TLE from 2 days ago
0 METEOSAT 5 (MOP 2)
1 21140U 91015B   26171.07976014 -.00000050  00000-0  00000-0 0  9991
2 21140  14.6538 349.9765 0009586 266.6298 263.3461  0.98450943130233
Epoch: 2026-06-20T01:54Z
TLE epoch observation values (Epoch: 2026-06-20T01:54:51.276Z)
Latitude
2.5503°
Longitude
-136.83145°
Altitude
36,309.034 km
Speed
3.056 km/s
True Right ascension
10h 40m 43s
True Declination
2° 32' 52"
Sunlit
Object was in daylight at epoch
Visualization orbit readout
Latitude
Unknown
Longitude
Unknown
Altitude
Unknown
Speed
Unknown
Apparent Right ascension
Unknown
Apparent Declination
Unknown
Sunlit
N/A
Visualization observer readout
Local Sidereal Time
23:19:58
Azimuth
Unknown
Elevation
Unknown
Doppler factor
Unknown
Orbital elements
Apogee altitude
36,346.77 km
Perigee altitude
36,264.936 km
Semi-major axis
42,683.99 km
Eccentricity
0.00096
Inclination
14.6538°
RAAN
349.9765°
Arg. of periapsis
266.6298°
True anomaly
263.23701°
Mean anomaly
263.3461°
Eccentric anomaly
263.29155°
Mean motion
0.24612 °/min
Orbital period
1,462.71 mins
BSTAR
0
Loading maneuver chart data...
Computing Atmospheric mass density...

Documentation

Showing up to 5 results
|